KORSAT-1

导读

KORSAT-1(即韩国“侦察卫星-1”号)是韩国自主研发的首颗军事侦察卫星,于北京时间2024年4月7日在美国加州范登堡太空军基地发射升空。该卫星运行在400至600千米的近地轨道,搭载了电子光学与红外线侦察设备,影像分辨率达0.3米,可对朝鲜半岛区域实现高精度监视。韩国计划在2025年前完成5颗侦察卫星组网,最终实现对特定目标两小时周期的常态化侦察,大幅提升韩国太空军事侦察能力。

基本信息
目录编号:
59452
目录名称:
KORSAT-1
国际标识:
2024-066L
轨道中心:
EARTH
卫星名称:
KORSAT-1
卫星全名:
KORSAT-1
卫星状态:
在轨 (已飞行799 天)
发射日期:
2024-04-07 UTC
国别 :
韩国 (KR)
星等 :
--
轨道信息
数据来源 国际轨道数据 AOE轨道数据
星历时间 2026-06-15T07:15:45+0800
6小时前
查看轨道信息
2026-06-15T07:00:00+0800
6小时前
查看轨道信息
半长轴 6949.556km 6949.571km
偏心率 0.0005409 0.0005085
轨道倾角 45.411° 45.411°
近地点辐角 36.088° 38.254°
升交点赤经 255.739° 255.800°
平近点角 324.036° 262.761°
近地点 567.659km 567.9km
远地点 575.179km 574.968km
周期 96.094分钟 96.094分钟
每日圈数 14.98536 14.985313
详细信息
使用方式:
暂无
2D轨道图
3D轨道图
轨道高度分析图
轨道倾角分析图
轨道综合分析图
查看轨道综合分析图